Voltar ao catálogo

THORAD AGENA D DEB

AtivoLEO
NORAD 4718·DEBRIS·🇺🇸 United States

Lançado Apr 8, 1970 de Vandenberg Space Force Base

Loading…

Próximas Passagens (próximas 24 horas)

TLE

AtualizadoSource: Space-Track

Época: Sep 14, 2026, 06:51 UTC

1 04718U 70025CC  26257.28553559  .00000307  00000-0  21135-3 0  9993
2 04718 100.0109  15.2336 0099169 307.4862  51.7316 14.05743013866693

Acompanhe THORAD AGENA D DEB em tempo real com AllMySat

Download on the App Store